Startpagina
METAR-TAF:

METAR-TAF

Vliegvelden :

Nampa, Idaho, Verenigde Staten

breedte: 43-34-53N, lengte: 116-31-23W, hoogte: 773 m

Actueel weer

Dit bericht is 11 minuten geleden gemaakt, om 10:35 UTC
Wind 6 kt uit het oostzuidoosten
Temperatuur -3°C
Vochtigheid 100%
Druk 1015 hPa
Zicht: 16.1 km
Onbewolkt

METAR: KMAN 161035Z AUTO 11006KT 10SM CLR M03/M03 A2996 RMK A01

Tijdstip: 03:46 (10:46 UTC)


TAF: ontbreekt

Waarnemingen en weersverwachtingen van meer dan 4000 vliegvelden (METAR en TAF).

De beschikbare stations zijn de gele en rode punten op de kaart.

Ga met uw muis naar het station om de naam te zien.

Klik dan om waarnemingen en weersverwachtingen te zien.

kaart wijzigen: klik op de groene knoppen met een zwart kruis om in te zoomen, op de groene knop met een streepje om uit te zoomen of op de groene pijlen voor aangrenzende kaarten.


METAR-TAF: